STARLINK-1107, 44972

Orbit data source: Space-Track

STARLINK-1107, 44972 is a payload satellite owned by SpaceX/Seattle (US) in LEO that was launched on Tue, 07 Jan 2020 UTC via an FALCON 9 launch vehicle from the Air Force Eastern Test Range (AFETR). Payload-class satellites include a variety of spacecraft equipped with specific instruments for various scientific and technological missions. These include communications satellites like Starlink; space stations such as the ISS; scientific satellites like the Hubble; Earth observation satellites from companies like Planet Labs, Umbra, and HawkEye 360; GPS; miniature CubeSats for education and research; and military/defense satellites.

Loading next visibility...
Identifier
44972, 2020-001BL
Orbit
LEO
Country
Flag of USUS
Related business
Manufacturer
SpaceX/Seattle
Mission
Partially operational Commercial Communications
Bus & Motor
STARLINK, Unknown motor
Mass
260 kg wet, ~248 kg dry
Launch date (UTC)
2020-01-07 (6 years ago)
Launch vehicle
FALCON 9
Launch site
Air Force Eastern Test Range (AFETR)
Object type
Payload
Rocket body
Debris
Shape & HBR
Box + 1 Pan, 10.1 m
Radar Cross Section
13.562 m², Large (>1 m²)

Expand to show TLE details & history
Last TLE update: 4 hours ago

TLE from 4 hours ago
0 STARLINK-1107
1 44972U 20001BL  25311.83336806  .00277107  00000-0  20371-2 0  9997
2 44972  53.0075  44.7866 0006121 328.5175 163.5027 15.71715041  5993
Epoch: 2025-11-07T20:00Z
TLE epoch observation values (Epoch: 2025-11-07T20:00:03.000Z)
Latitude
36.50398°
Longitude
-156.16702°
Altitude
360.797 km
Speed
7.695 km/s
True Right ascension
12h 44m 28s
True Declination
36° 19' 48"
Sunlit
Object was in daylight at epoch
Visualization orbit readout
Latitude
Unknown
Longitude
Unknown
Altitude
Unknown
Speed
Unknown
Apparent Right ascension
Unknown
Apparent Declination
Unknown
Sunlit
N/A
Visualization observer readout
Local Sidereal Time
20:00:16
Azimuth
Unknown
Elevation
Unknown
Doppler factor
Unknown
Orbital elements
Apogee altitude
358.402 km
Perigee altitude
350.16 km
Semi-major axis
6,732.418 km
Eccentricity
0.00061
Inclination
53.0075°
RAAN
44.7866°
Arg. of periapsis
328.5175°
True anomaly
163.5226°
Mean anomaly
163.5027°
Eccentric anomaly
163.51265°
Mean motion
3.92904 °/min
Orbital period
91.63 mins
BSTAR
0.0020371
Loading maneuver chart data...
Computing Atmospheric mass density...
Loading historical data...
Loading historical data...
Loading historical data...
Loading historical data...
Loading historical data...
Loading historical data...
Loading historical data...

Documentation

Showing up to 5 results
|